TimeCDT,TemperatureF,Dew PointF,Humidity,Sea Level PressureIn,VisibilityMPH,Wind Direction,Wind SpeedMPH,Gust SpeedMPH,PrecipitationIn,Events,Conditions,WindDirDegrees,DateUTC
12:15 AM,53.6,46.4,77,30.20,10.0,SE,6.9,-,N/A,,Unknown,140,2012-04-18 05:15:00
12:35 AM,53.6,46.4,77,30.20,10.0,SE,6.9,-,N/A,,Unknown,140,2012-04-18 05:35:00
12:55 AM,51.8,46.4,82,30.20,10.0,SE,5.8,-,N/A,,Unknown,140,2012-04-18 05:55:00
1:15 AM,51.8,46.4,82,30.20,10.0,SE,4.6,-,N/A,,Unknown,140,2012-04-18 06:15:00
1:35 AM,51.8,44.6,76,30.20,10.0,SE,3.5,-,N/A,,Unknown,140,2012-04-18 06:35:00
1:55 AM,51.8,44.6,76,30.19,10.0,SE,5.8,-,N/A,,Unknown,140,2012-04-18 06:55:00
2:15 AM,51.8,44.6,76,30.18,10.0,SE,5.8,-,N/A,,Unknown,130,2012-04-18 07:15:00
2:35 AM,51.8,44.6,76,30.18,10.0,SSE,4.6,-,N/A,,Unknown,150,2012-04-18 07:35:00
2:55 AM,48.2,44.6,87,30.18,10.0,SE,4.6,-,N/A,,Unknown,140,2012-04-18 07:55:00
3:15 AM,50.0,44.6,82,30.17,10.0,SE,5.8,-,N/A,,Unknown,140,2012-04-18 08:15:00
3:35 AM,48.2,42.8,82,30.16,10.0,SE,4.6,-,N/A,,Unknown,140,2012-04-18 08:35:00
3:55 AM,48.2,44.6,87,30.17,10.0,Calm,Calm,-,N/A,,Unknown,0,2012-04-18 08:55:00
4:35 AM,48.2,42.8,82,30.17,10.0,Calm,Calm,-,N/A,,Unknown,0,2012-04-18 09:35:00
4:55 AM,48.2,42.8,82,30.17,10.0,ESE,3.5,-,N/A,,Unknown,120,2012-04-18 09:55:00
5:15 AM,48.2,42.8,82,30.16,10.0,ESE,5.8,-,N/A,,Unknown,120,2012-04-18 10:15:00
5:35 AM,46.4,41.0,81,30.15,10.0,SE,3.5,-,N/A,,Unknown,130,2012-04-18 10:35:00
5:55 AM,46.4,42.8,87,30.16,10.0,SSE,3.5,-,N/A,,Unknown,150,2012-04-18 10:55:00
6:15 AM,46.4,42.8,87,30.16,10.0,ESE,4.6,-,N/A,,Unknown,120,2012-04-18 11:15:00
6:35 AM,46.4,42.8,87,30.16,10.0,SE,4.6,-,N/A,,Unknown,130,2012-04-18 11:35:00
7:15 AM,48.2,42.8,82,30.17,10.0,SE,5.8,-,N/A,,Unknown,140,2012-04-18 12:15:00
7:35 AM,50.0,44.6,82,30.17,10.0,SE,5.8,-,N/A,,Unknown,140,2012-04-18 12:35:00
7:55 AM,51.8,44.6,76,30.17,10.0,SE,4.6,-,N/A,,Unknown,140,2012-04-18 12:55:00
8:15 AM,53.6,44.6,72,30.18,10.0,SSE,5.8,-,N/A,,Unknown,160,2012-04-18 13:15:00
8:35 AM,55.4,44.6,67,30.18,10.0,SSE,4.6,-,N/A,,Unknown,150,2012-04-18 13:35:00
8:55 AM,57.2,44.6,63,30.18,10.0,SSE,5.8,-,N/A,,Unknown,160,2012-04-18 13:55:00
9:15 AM,57.2,42.8,59,30.17,10.0,South,5.8,-,N/A,,Unknown,170,2012-04-18 14:15:00
9:35 AM,60.8,42.8,52,30.17,10.0,SSE,6.9,-,N/A,,Unknown,160,2012-04-18 14:35:00
9:55 AM,62.6,41.0,45,30.18,10.0,SSW,5.8,-,N/A,,Unknown,200,2012-04-18 14:55:00
10:15 AM,62.6,42.8,48,30.18,10.0,South,6.9,-,N/A,,Unknown,180,2012-04-18 15:15:00
10:35 AM,64.4,39.2,40,30.17,10.0,South,6.9,-,N/A,,Unknown,190,2012-04-18 15:35:00
10:55 AM,66.2,41.0,40,30.18,10.0,SSW,6.9,-,N/A,,Unknown,200,2012-04-18 15:55:00
11:15 AM,66.2,42.8,43,30.18,10.0,SSW,6.9,-,N/A,,Unknown,210,2012-04-18 16:15:00
11:35 AM,68.0,41.0,37,30.17,10.0,South,9.2,-,N/A,,Unknown,180,2012-04-18 16:35:00
11:55 AM,69.8,42.8,38,30.17,10.0,South,5.8,-,N/A,,Unknown,190,2012-04-18 16:55:00
12:15 PM,69.8,42.8,38,30.16,10.0,SSW,6.9,-,N/A,,Unknown,200,2012-04-18 17:15:00
12:35 PM,69.8,44.6,40,30.15,10.0,South,8.1,-,N/A,,Unknown,170,2012-04-18 17:35:00
12:55 PM,69.8,44.6,40,30.14,10.0,South,9.2,-,N/A,,Unknown,180,2012-04-18 17:55:00
1:15 PM,71.6,44.6,38,30.13,10.0,SSW,9.2,-,N/A,,Unknown,200,2012-04-18 18:15:00
1:35 PM,71.6,46.4,41,30.12,10.0,South,9.2,-,N/A,,Unknown,190,2012-04-18 18:35:00
1:55 PM,71.6,46.4,41,30.11,10.0,SSW,10.4,-,N/A,,Unknown,210,2012-04-18 18:55:00
2:15 PM,71.6,46.4,41,30.11,10.0,SSW,6.9,-,N/A,,Unknown,200,2012-04-18 19:15:00
2:35 PM,71.6,46.4,41,30.10,10.0,South,8.1,-,N/A,,Unknown,190,2012-04-18 19:35:00
2:55 PM,73.4,44.6,36,30.09,10.0,South,8.1,-,N/A,,Unknown,170,2012-04-18 19:55:00
3:15 PM,71.6,46.4,41,30.08,10.0,SSW,8.1,-,N/A,,Unknown,210,2012-04-18 20:15:00
3:35 PM,73.4,46.4,38,30.06,10.0,South,8.1,-,N/A,,Unknown,180,2012-04-18 20:35:00
3:55 PM,73.4,44.6,36,30.05,10.0,SSW,9.2,-,N/A,,Unknown,200,2012-04-18 20:55:00
4:15 PM,73.4,46.4,38,30.04,10.0,SSW,8.1,-,N/A,,Unknown,200,2012-04-18 21:15:00
4:35 PM,73.4,46.4,38,30.03,10.0,SSW,9.2,-,N/A,,Unknown,200,2012-04-18 21:35:00
4:55 PM,73.4,46.4,38,30.02,10.0,South,9.2,-,N/A,,Unknown,180,2012-04-18 21:55:00
5:15 PM,73.4,44.6,36,30.02,10.0,SSE,9.2,-,N/A,,Unknown,160,2012-04-18 22:15:00
5:35 PM,71.6,44.6,38,30.02,10.0,SSW,8.1,-,N/A,,Unknown,210,2012-04-18 22:35:00
5:55 PM,73.4,44.6,36,30.02,10.0,South,8.1,-,N/A,,Unknown,190,2012-04-18 22:55:00
6:15 PM,71.6,44.6,38,30.02,10.0,SSW,8.1,-,N/A,,Unknown,200,2012-04-18 23:15:00
6:35 PM,71.6,46.4,41,30.02,10.0,SSW,8.1,-,N/A,,Unknown,200,2012-04-18 23:35:00
7:15 PM,69.8,44.6,40,30.01,10.0,SSW,6.9,-,N/A,,Unknown,200,2012-04-19 00:15:00
7:35 PM,66.2,44.6,46,30.01,10.0,SSW,5.8,-,N/A,,Unknown,200,2012-04-19 00:35:00
7:55 PM,66.2,42.8,43,30.01,10.0,South,4.6,-,N/A,,Unknown,180,2012-04-19 00:55:00
8:15 PM,64.4,42.8,45,30.01,10.0,South,4.6,-,N/A,,Unknown,170,2012-04-19 01:15:00
8:35 PM,62.6,44.6,52,30.01,10.0,SSE,6.9,-,N/A,,Unknown,160,2012-04-19 01:35:00
8:55 PM,60.8,44.6,55,30.01,10.0,SSE,5.8,-,N/A,,Unknown,160,2012-04-19 01:55:00
9:15 PM,60.8,42.8,52,30.02,10.0,SSE,5.8,-,N/A,,Unknown,150,2012-04-19 02:15:00
9:35 PM,57.2,44.6,63,30.02,10.0,SE,5.8,-,N/A,,Unknown,140,2012-04-19 02:35:00
9:55 PM,57.2,44.6,63,30.02,10.0,SE,6.9,-,N/A,,Unknown,140,2012-04-19 02:55:00
10:15 PM,55.4,44.6,67,30.02,10.0,SE,6.9,-,N/A,,Unknown,140,2012-04-19 03:15:00
10:35 PM,55.4,44.6,67,30.01,10.0,SSE,8.1,-,N/A,,Unknown,150,2012-04-19 03:35:00
10:55 PM,55.4,44.6,67,30.01,10.0,SE,8.1,-,N/A,,Unknown,140,2012-04-19 03:55:00
11:15 PM,55.4,44.6,67,30.01,10.0,SSE,6.9,-,N/A,,Unknown,150,2012-04-19 04:15:00
11:35 PM,55.4,44.6,67,30.00,10.0,SSE,6.9,-,N/A,,Unknown,150,2012-04-19 04:35:00
11:55 PM,53.6,44.6,72,30.00,10.0,SSE,6.9,-,N/A,,Unknown,150,2012-04-19 04:55:00